星链-31297 (STARLINK-31297 )

导读

STARLINK-31297是美国SpaceX公司星链(Starlink)星座中的一颗卫星,于2024年3月4日发射升空,隶属于星链第二代卫星组网计划。星链星座旨在为全球提供高速低延迟的宽带互联网服务,重点覆盖传统基础设施缺失的偏远地区,助力全球互联网普及。目前星链已发展出多代卫星技术,截至2025年已拥有超7800颗在轨卫星,服务超600万全球用户,持续向千兆网速方向升级。

Basic Information
目录编号:
59158
目录名称:
STARLINK-31297
国际标识:
2024-044G
轨道中心:
EARTH
卫星名称:
星链-31297
卫星全名:
星链-31297 (STARLINK-31297 )
卫星状态:
在轨 (已飞行836 天)
发射日期:
2024-03-04 UTC
国别 :
美国 (US)
星等 :
--
Orbit Information
数据来源 国际轨道数据
星历时间: 2026-06-16T21:14:17+0800
1天前
查看轨道信息
半长轴: 6861.183km
偏心率: 0.0001428
轨道倾角: 42.999°
近地点辐角 270.938°
升交点赤经 268.844°
平近点角 89.131°
近地点: 482.066km
远地点: 484.026km
周期: 94.267分钟
每日圈数: 15.275813
Detailed Information
固有亮度:
5
最大亮度:
0.3
卫星平台:
Starlink v2.0 mini
覆盖范围:
全球
运营商:
太空探索技术公司
运营商所在国:
美国
制造商(研发单位):
太空探索技术公司
制造商所在国:
美国
使用方式:
暂无
Satellite Introduction
星链(Starlink)计划是由太空探索技术公司(SpaceX)提出的一个巨型低轨卫星互联网星座项目,计划在2019年至2024年间在太空搭建由约1.2万颗卫星组成的“星链”网络,其中1584颗将部署在地球上空550千米处的近地轨道,并从2020年开始工作。该卫星仍在工作。
2D Orbit Map
3D Orbit Map
Orbit Altitude Analysis Chart
Orbit Inclination Analysis Chart
Orbit Comprehensive Analysis Chart
View Comprehensive Chart